Weather Roundup
Issued by NWS Chicago, IL

Home | Current Version | Previous Version | Text Only | Print | Product List | Glossary Off
Versions: 1 2 3 4 5 6 7 8 9 10 11 12 13 14 15 16 17 18 19 20 21 22 23 24 25 26 27 28 29 30 31 32 33 34 35 36 37 38 39 40 41 42 43 44 45 46 47 48 49 50

000
NZUS59 KLOT 290410
HRRLOT

CHICAGO AREA WEATHER ROUNDUP
NATIONAL WEATHER SERVICE CHICAGO/ROMEOVILLE IL
1000 PM CST WED JAN 28 2015

NOTE: "FAIR" INDICATES FEW OR NO CLOUDS BELOW 12,000 FEET WITH NO
SIGNIFICANT WEATHER AND/OR OBSTRUCTIONS TO VISIBILITY.

* THESE STATIONS ARE NOT UNDER NWS QUALITY CONTROL. THEY ALSO MAY NOT
  REPORT WEATHER SUCH AS PRECIPITATION OR FOG.

ILZ005-006-012>014-019>023-290500-
NORTHEAST ILLINOIS

CITY           SKY/WX    TMP DP  RH WIND       PRES   REMARKS
OHARE          CLOUDY    33  21  61 S14       29.88F WCI  23
MIDWAY         CLOUDY    35  21  56 S15G23    29.89F WCI  25
AURORA         CLOUDY    35  23  61 S20       29.86F WCI  24
LANSING*       CLOUDY    33  22  64 S14       29.93F WCI  23
JOLIET*        CLOUDY    34  23  63 S13       29.90F WCI  25
WAUKEGAN       MOCLDY    32  20  61 SE13      29.88F WCI  22
DUPAGE AIRPORT CLOUDY    34  22  61 S18       29.86F WCI  23
WHEELING       CLOUDY    33  20  58 S14       29.90F WCI  23
KANKAKEE*      MOCLDY    34  24  67 SE13      29.92F WCI  25
MORRIS*        LGT RAIN  34  28  80 S15G21    29.88F WCI  24
LEWIS AIRPORT* CLOUDY    33  23  68 S20       29.89F WCI  21
NORTHERLY IS     N/A     34  20  57 S15         N/A  WCI  24
$$

WIZ051-052-058>065-066-070>072-290500-
SOUTHEAST WISCONSIN

CITY           SKY/WX    TMP DP  RH WIND       PRES   REMARKS
MILWAUKEE      CLOUDY    32  22  66 S10       29.87F WCI  24
KENOSHA*       CLOUDY    32  21  64 S9        29.88F WCI  24
RACINE*        CLOUDY    32  24  72 S15G23    29.90F WCI  22
BURLINGTON     CLOUDY    30  21  67 SE8       29.85F WCI  23
WAUKESHA       CLOUDY    30  23  74 SE9       29.86F WCI  22
WEST BEND      CLOUDY    32  21  64 SE7       29.85F WCI  26
$$

INZ001>003-010>013-019-020-290500-
NORTHWEST INDIANA

CITY           SKY/WX    TMP DP  RH WIND       PRES   REMARKS
GARY*          CLOUDY    35  17  47 S9G20     29.92F WCI  28
MICHIGAN CITY* NOT AVBL
RENSSELAER*    NOT AVBL
VALPARAISO     MOCLDY    32  20  61 S10       29.95F WCI  24
$$

LMZ740>746-290500-
SOUTHERN LAKE MICHIGAN

STATION/POSITION TIME  SKY/WX   TEMP WIND        PRES    VSBY
                                AIR  DIR/SP/G
                 (UTC)          (F)  (DEG/KT/KT) (MB)    (MI)
HARRISON CRIB    0400            34  170/ 25/ 30   N/A
BURNHAM HARBOR   0400            34  150/ 12/ 17   N/A
CALUMET HARBOR   0400            34  170/ 12/ 20   N/A
BURNS HARBOR     NOT AVBL
MICHIGAN CITY    0400            32  130/ 18/ 22   N/A
$$

ABBREVIATIONS USED IN REMARKS
   TC - TEMPERATURE IN CELSIUS
  WCI - WIND CHILL INDEX
   HX - HEAT INDEX
  VSB - VISIBILITY
$$



USA.gov is the U.S. government's official web portal to all federal, state and local government web resources and services.